Regional Weather Roundup
Issued by NWS

Home | Current Version | Previous Version | Graphics & Text | Print | Product List | Glossary On
Versions: 1 2 3 4 5 6 7 8 9 10 11 12 13 14 15 16 17 18 19 20 21 22 23 24 25 26 27 28 29 30 31 32 33 34 35 36 37 38 39 40 41 42 43 44 45 46 47 48 49 50
000
ASUS43 KMPX 080510
RWRMN
WEATHER ROUNDUP FOR MINNESOTA
NATIONAL WEATHER SERVICE TWIN CITIES/CHANHASSEN MN
1200 AM CDT WED JUL 08 2015


NOTE: "FAIR" INDICATES FEW OR NO CLOUDS BELOW 12,000 FEET WITH NO
SIGNIFICANT WEATHER AND/OR OBSTRUCTIONS TO VISIBILITY. N/A MEANS
CURRENT SKY AND/OR WEATHER CONDITIONS ARE NOT AVAILABLE.

MNZ060>063-068>070-080600-
   Twin Cities Metro

CITY           SKY/WX    TMP DP  RH WIND       PRES   REMARKS
TWIN CITIES    PTCLDY    63  49  60 CALM      30.12S
ST PAUL        CLEAR     59  53  80 CALM      30.12S
CRYSTAL        PTCLDY    58  51  78 CALM      30.10F
BLAINE         PTCLDY    57  54  88 CALM      30.12S
LAKEVILLE      PTCLDY    54  52  94 CALM      30.12S
EDEN PRAIRIE   PTCLDY    61  51  70 S3        30.11S
SOUTH ST PAUL  PTCLDY    59  52  77 CALM      30.12S
LAKE ELMO      FAIR      55  54  94 CALM      30.13S
$$
MNZ001>005-007-008-013>017-022>024-027-028-080600-
   Northwest Minnesota

CITY           SKY/WX    TMP DP  RH WIND       PRES   REMARKS
BEMIDJI        CLEAR     56  47  72 SW5       30.07F
HALLOCK        PTCLDY    57  52  82 S9        29.98F
ROSEAU         CLEAR     54  48  82 S7        30.02S
WARROAD        CLEAR     57  48  72 S5        30.03S
THIEF RVR FALL CLEAR     55  46  71 S8        30.04S
CROOKSTON      CLEAR     59  48  67 S10       30.04S
FOSSTON        PTCLDY    50  46  87 S7        30.06F
DETROIT LAKES  CLEAR     57  50  77 S5        30.09S
MOORHEAD       PTCLDY    57  48  72 S9        30.06S
PARK RAPIDS    CLEAR     56  47  71 S3        30.09S
MAHNOMEN       FAIR      55  47  75 SE6       30.06F
$$
MNZ006-009>011-018-025>026-080600-
   North Central Minnesota

CITY           SKY/WX    TMP DP  RH WIND       PRES   REMARKS
BAUDETTE       CLEAR     52  48  86 S3        30.03F
FLAG ISLAND    CLEAR     64  52  63 S6        30.00F
INTL FALLS     CLEAR     45  43  93 CALM      30.05S
WASKISH        CLEAR     48  46  93 CALM      30.06F
BIG FORK       CLEAR     48  46  93 CALM      30.08S
LONGVILLE      CLEAR     48  48 100 CALM      30.09S
GRAND RAPIDS   CLEAR     52  45  76 S5        30.10S
CRANE LAKE     CLEAR     46  46 100 S2        30.09S
COOK           CLEAR     50  46  87 CALM      30.09S
WALKER         FAIR      53  47  79 SW3       30.08F
$$
MNZ012-019>021-037-080600-
   Northeast Minnesota

CITY           SKY/WX    TMP DP  RH WIND       PRES   REMARKS
DULUTH         CLEAR     57  48  72 W5        30.10S
ELY            CLEAR     48  45  87 CALM      30.09S
HIBBING        CLEAR     46  44  93 CALM      30.09S
EVELETH        CLEAR     46  45  93 CALM      30.10S
DULUTH HARBOR  CLEAR     61  54  77 SW9       30.10S
TWO HARBORS    CLEAR     54  48  82 CALM      30.08S
SILVER BAY     CLEAR     48  46  93 CALM      30.08S
GRAND MARAIS     N/A     50  46  86 CALM      30.08F
G MARAIS ARPRT CLEAR     46  41  81 SW3       30.12S
$$
MNZ029>031-032-039>041-046>048-054>057-064-080600-
   West Central Minnesota

CITY           SKY/WX    TMP DP  RH WIND       PRES   REMARKS
FERGUS FALLS   CLEAR     57  48  72 S6        30.09S
WHEATON        CLEAR     57  48  72 SE9       30.10S
MORRIS         CLEAR     55  52  88 S3        30.10S
ALEXANDRIA     CLEAR     56  50  80 S7        30.12S
ELBOW LAKE     FAIR      55  49  81 S5        30.10R
WADENA         CLEAR     52  48  87 CALM      30.09S
GLENWOOD       PTCLDY    55  52  88 CALM      30.12S
APPLETON       FAIR      57  52  82 CALM      30.10S
BENSON         CLEAR     55  50  82 S3        30.11S
ORTONVILLE     CLEAR     55  48  76 SE3       30.10S
MADISON        CLEAR     55  50  82 S5        30.11S
WILLMAR        FAIR      55  52  88 CALM      30.13S
$$
MNZ033>034-036-042>043-049>051-058-059-080600-
   Central Minnesota

CITY           SKY/WX    TMP DP  RH WIND       PRES   REMARKS
ST CLOUD       PTCLDY    54  51  90 CALM      30.11F
SAUK CENTRE    FAIR      53  51  93 CALM      30.11F
PAYNESVILLE    PTCLDY    49  48  95 CALM      30.12S
AITKIN         PTCLDY    48  45  87 CALM      30.09S
PINE RIVER     PTCLDY    48  46  93 CALM      30.13S
BRAINERD       PTCLDY    54  49  83 CALM      30.11S
STAPLES        PTCLDY    54  48  82 S3        30.10S
LONG PRAIRIE   FAIR      52  50  93 CALM      30.12S
LITTLE FALLS   PTCLDY    52  46  82 CALM      30.11S
LITCHFIELD     PTCLDY    57  54  88 CALM      30.12S
BUFFALO        PTCLDY    56  51  84 CALM      30.13S
MAPLE LAKE     PTCLDY    55  53  94 CALM      30.13S
$$
MNZ037-044-045-052-053-080600-
   East Central Minnesota

CITY           SKY/WX    TMP DP  RH WIND       PRES   REMARKS
PRINCETON      PTCLDY    54  52  94 CALM      30.12S
MORA           PTCLDY    50  50 100 CALM      30.13S
CAMBRIDGE      PTCLDY    55  46  71 CALM      30.10F
RUSH CITY      MOCLDY    51  50  95 CALM      30.12S
MOOSE LAKE     CLEAR     50  48  93 CALM      30.09S
HINCKLEY       FAIR      50  50 100 CALM      30.12R
CLOQUET        CLEAR     54  46  76 SW5       30.10F
MCGREGOR       CLEAR     52  50  93 CALM      30.11S
$$
MNZ071>073-080-081-089-090-097-098-080600-
   Southwest Minnesota

CITY           SKY/WX    TMP DP  RH WIND       PRES   REMARKS
MONTEVIDEO     FAIR      57  50  77 S3        30.13S
GRANITE FALLS  PTCLDY    53  50  92 CALM      30.13S
CANBY          CLEAR     57  50  77 S3        30.12F
MARSHALL       CLEAR     57  46  67 S5          N/A
REDWOOD FALLS  PTCLDY    58  51  78 CALM      30.11F
OLIVIA         PTCLDY    54  46  76 SE3       30.11F
PIPESTONE      CLEAR     55  52  88 SE3       30.13R
WINDOM         PTCLDY    54  50  87 CALM      30.13S
WORTHINGTON    PTCLDY    54  46  76 SE6       30.13S
JACKSON        PTCLDY    55  52  88 SE3       30.14S
TRACY          CLEAR     58  51  77 S5        30.12F
SLAYTON        CLEAR     54  52  95 CALM      30.14S
$$
MNZ065>067-074>077-082>085-091>093-080600-
   South Central Minnesota

CITY           SKY/WX    TMP DP  RH WIND       PRES   REMARKS
MANKATO        PTCLDY    61  50  67 S5        30.13S
NEW ULM        PTCLDY    55  52  88 CALM      30.12S
ST JAMES         N/A     55  54  94 CALM      30.14S
FAIRMONT       PTCLDY    55  48  76 CALM      30.13S
GLENCOE        PTCLDY    56  53  90 CALM      30.12S
FARIBAULT      PTCLDY    55  54  94 CALM      30.13S
OWATONNA       PTCLDY    55  52  88 CALM      30.13S
WASECA         PTCLDY    54  50  87 CALM      30.14S
ALBERT LEA     PTCLDY    54  54 100 CALM      30.13S
$$
MNZ078>079-086>088-094>096-080600-
   Southeast Minnesota

CITY           SKY/WX    TMP DP  RH WIND       PRES   REMARKS
ROCHESTER      MOCLDY    56  51  84 CALM      30.14S
RED WING       CLEAR     54  52  94 CALM      30.11S
STANTON        PTCLDY    55  52  88 S3        30.12S
DODGE CENTER   PTCLDY    54  52  94 CALM      30.13S
WINONA         CLOUDY    59  55  88 CALM      30.12S
AUSTIN         PTCLDY    55  52  88 CALM      30.13S
PRESTON        CLOUDY    58  50  74 CALM      30.14S
$$
ABBREVIATIONS USED IN REMARKS
   TC - TEMPERATURES IN CELSIUS
  WCI - WIND CHILL INDEX
   HX - HEAT INDEX
  VSB - VISIBILITY
$$


USA.gov is the U.S. government's official web portal to all federal, state and local government web resources and services.